[[{"header":{"parameterUnit":"m.s-1","parameterCategory":1,"la1":30.2992,"la2":30.254,"lo1":-89.0895,"lo2":-89.0443,"dy":0.0025,"dx":0.0025,"nx":19,"ny":19,"refTime":"2026-05-12T21:00:00:Z","depth":0,"parameterNumber":2,"parameterNumberName":"U-component_of_WINDS"},"data":[0,0,0,0.9971,0.9972,1.0026,1.0026,1.009,1.009,0,0,0,0,0,0,0,0,0,0,0,0.9952,0.9952,0.9971,0.9972,1.0026,1.0026,1.009,1.009,0,0,0,0,0,0,0,0,0,0,0,0.9951,0.9952,0.9952,0.9973,1.0026,1.0026,1.0089,1.0051,0,0,0,0,0,0,0,0,0,0,1.0,0.9978,0.9952,0.9952,0.9973,1.0026,1.0026,1.0049,1.0053,1.0063,0,1.007,0,1.0081,1.0094,1.0094,0,0,0,0.9975,0.9974,0.9992,0.9952,0.9973,1.0026,1.0003,1.0052,1.0056,1.0068,1.0071,1.0073,1.0082,1.0094,1.0095,1.014,1.014,0,0,0.9972,0.9959,0.9989,0.9995,0.9986,1.0001,1.0004,1.0054,1.0056,1.0071,1.0075,1.0083,1.0095,1.0095,1.014,1.014,0,0,0,0.9962,0.9957,0.9974,0.9992,1.0002,1.0002,1.0006,1.0054,1.0061,1.0076,1.0084,1.0095,1.0096,1.0139,1.014,1.013,0,0,0,0.996,0.9951,0.9972,0.9965,1.0001,1.0029,1.0005,1.0057,1.0063,1.0083,1.0095,1.0096,1.0139,1.014,1.013,1.0128,0,0,0,0.9949,0.995,0.9956,0.9964,0.9987,1.0028,1.0038,1.0059,1.0068,1.0094,1.0096,1.0139,1.0139,1.0131,1.0128,1.0136,0,0,0,0.9934,0.9947,0.9956,0.9974,0.9986,1.0022,1.0038,1.0065,1.0086,1.0095,1.0139,1.014,1.0131,1.0128,1.0136,1.014,1.0141,0,0,0.9943,0.9947,0.9959,0.9969,1.0,1.0015,1.0045,1.0077,1.0092,1.0123,1.0124,1.013,1.0128,1.0136,1.0149,1.0149,0,0,0,0.9958,0.9966,0.9977,0.9996,1.0021,1.0043,1.0071,1.0083,1.0111,1.0105,1.0136,1.0135,1.014,1.0143,1.0143,1.0149,1.014,1.014,1.014,0.9951,0.9969,0.999,1.0015,1.0034,1.0064,1.0081,1.0103,1.0115,1.0123,1.0132,1.0137,1.014,1.014,1.0145,1.0136,1.0136,1.0136,1.0136,0.9966,0.998,0.9998,1.0024,1.0044,1.0066,1.0096,1.0104,1.0129,1.0131,1.0137,1.0138,1.014,1.0145,1.0135,1.0135,1.0135,1.0135,1.0135,0.9963,0.9973,0.9988,1.0019,1.0041,1.0066,1.0089,1.0106,1.0122,1.0128,1.014,1.014,1.0142,1.0132,1.0133,1.0133,1.0133,1.0133,1.0133,0.9954,0.9971,0.9988,1.0016,1.0032,1.0054,1.0086,1.0101,1.0123,1.0134,1.0134,1.0146,1.0136,1.0133,1.0133,1.0133,1.0133,1.0133,1.0133,0.9962,0.9963,0.9989,1.0004,1.004,1.0061,1.0083,1.0114,1.0129,1.014,1.0152,1.0142,1.0147,1.0147,1.0145,1.0148,1.0148,1.0148,1.0148,0.996,0.9965,0.9995,1.0019,1.0044,1.0067,1.0096,1.0121,1.0147,1.0159,1.0161,1.0159,1.0158,1.0165,1.0164,1.0162,1.017,1.017,1.017,0.9966,0.9974,0.9995,1.002,1.005,1.0074,1.0103,1.013,1.016,1.0171,1.0168,1.0167,1.0164,1.0163,1.0173,1.0172,1.0168,0,0]},{"header":{"parameterUnit":"m.s-1","parameterCategory":1,"la1":30.2992,"la2":30.254,"lo1":-89.0895,"lo2":-89.0443,"dy":0.0025,"dx":0.0025,"nx":19,"ny":19,"refTime":"2026-05-12T21:00:00:Z","depth":0,"parameterNumber":3,"parameterNumberName":"V-component_of_WINDS"},"data":[0,0,0,-1.8438,-1.844,-1.8546,-1.8546,-1.8677,-1.8678,0,0,0,0,0,0,0,0,0,0,0,-1.8404,-1.8405,-1.8438,-1.8441,-1.8546,-1.8546,-1.8676,-1.8678,0,0,0,0,0,0,0,0,0,0,0,-1.8404,-1.8405,-1.8406,-1.8441,-1.8546,-1.8546,-1.8676,-1.8598,0,0,0,0,0,0,0,0,0,0,-1.8496,-1.8463,-1.8405,-1.8406,-1.8442,-1.8546,-1.8546,-1.8594,-1.8603,-1.8627,0,-1.8648,0,-1.8665,-1.8686,-1.8687,0,0,0,-1.8442,-1.8455,-1.8486,-1.8406,-1.8442,-1.8546,-1.8499,-1.8599,-1.8609,-1.8638,-1.865,-1.8655,-1.8667,-1.8687,-1.8688,-1.8823,-1.8823,0,0,-1.8436,-1.8422,-1.848,-1.8493,-1.8476,-1.8495,-1.8502,-1.8605,-1.8616,-1.865,-1.8658,-1.8669,-1.8688,-1.8689,-1.8822,-1.8823,0,0,0,-1.8419,-1.8417,-1.8446,-1.8487,-1.8507,-1.8498,-1.8506,-1.8612,-1.8623,-1.8659,-1.8671,-1.8689,-1.869,-1.8821,-1.8822,-1.8836,0,0,0,-1.8415,-1.8407,-1.8443,-1.8435,-1.8505,-1.8561,-1.851,-1.8615,-1.8627,-1.867,-1.8689,-1.8691,-1.8821,-1.8822,-1.8834,-1.8844,0,0,0,-1.8398,-1.8405,-1.842,-1.8434,-1.8479,-1.8559,-1.8576,-1.8618,-1.8635,-1.8687,-1.8692,-1.882,-1.8822,-1.8833,-1.8842,-1.8876,0,0,0,-1.8376,-1.8429,-1.842,-1.8483,-1.8478,-1.8567,-1.8575,-1.8642,-1.8688,-1.8689,-1.8821,-1.8822,-1.8832,-1.884,-1.8874,-1.8902,-1.8912,0,0,-1.8434,-1.8435,-1.8474,-1.8469,-1.8556,-1.8552,-1.8641,-1.8697,-1.8715,-1.8786,-1.8789,-1.8835,-1.8842,-1.8876,-1.8975,-1.8983,0,0,0,-1.8488,-1.8515,-1.8542,-1.8586,-1.8631,-1.8671,-1.8715,-1.8736,-1.8797,-1.8748,-1.8857,-1.8861,-1.8882,-1.8896,-1.8903,-1.8922,-1.8828,-1.8828,-1.8828,-1.8548,-1.857,-1.8636,-1.8671,-1.8714,-1.8761,-1.8798,-1.8834,-1.8842,-1.8867,-1.8888,-1.8946,-1.8962,-1.8967,-1.8986,-1.8905,-1.8905,-1.8905,-1.8905,-1.8636,-1.8679,-1.8691,-1.876,-1.8783,-1.884,-1.8888,-1.8892,-1.8949,-1.8931,-1.8951,-1.8929,-1.8975,-1.8993,-1.8906,-1.8906,-1.8906,-1.8906,-1.8906,-1.8678,-1.8703,-1.8729,-1.8797,-1.8846,-1.888,-1.8935,-1.8954,-1.8971,-1.8991,-1.9015,-1.9015,-1.9018,-1.9001,-1.9001,-1.9002,-1.9002,-1.9002,-1.9002,-1.8711,-1.874,-1.8785,-1.8839,-1.8871,-1.8915,-1.8964,-1.8996,-1.9036,-1.9045,-1.9046,-1.9052,-1.8976,-1.8956,-1.9005,-1.9005,-1.9004,-1.9004,-1.9004,-1.8792,-1.8777,-1.8845,-1.8878,-1.8944,-1.8993,-1.9017,-1.9081,-1.911,-1.9137,-1.914,-1.9081,-1.9082,-1.9077,-1.9061,-1.9135,-1.9135,-1.9135,-1.9135,-1.8827,-1.883,-1.8906,-1.8956,-1.9008,-1.9038,-1.9115,-1.9155,-1.9193,-1.9212,-1.9205,-1.9185,-1.9179,-1.9184,-1.9177,-1.9162,-1.926,-1.926,-1.926,-1.8878,-1.8888,-1.895,-1.8988,-1.9042,-1.9088,-1.9162,-1.922,-1.926,-1.9266,-1.9228,-1.9223,-1.9192,-1.918,-1.9184,-1.9172,-1.9145,0,0]}]]